Starlink 5623

operational
NORAD ID: 55405 Int'l Des: 2023-014 Owner: SPXS Country: US Constellation: starlink
LEOCIRCULAR

About Starlink 5623

Description loading...

Live Position

Loading 3D Globe...

Upcoming Passes

Altitude History

Altitude vs Time

uPlot chart will show altitude changes over time

Two-Line Element Set

1 55405U 23014Q 25347.56381816 .00000683 00000-0 65071-4 0 9998
2 55405 70.0010 281.6460 0002914 267.0750 93.0076 14.98326700159155
Epoch: Dec 13, 2025 • Age: 17 hours

Current Status

Altitude 579.2 km
Velocity 7.57 km/s
Sub-Earth Point -23.14°S, 71.38°W
Launch Date Jan 31, 2023
Age 2.8 years
Type internet

Technical Details

Classification Payload
Mass 305.00 kg
Dry Mass 290.00 kg
Total Mass 305.00 kg
Length 0.20 m
Diameter 2.80 m
Span 9.00 m
Shape Box + pan
Manufacturer SPXS
Bus Type Starlink
Phase Status In Orbit
Owner/State SPXS/US

Large Constellations

Loading constellations...